Satellite: NOAA-12
Catalog number: 21263
Epoch time:      09077.98759464
Element set:    0058
Inclination:      098.7741 deg
RA of node:       086.0016 deg
Eccentricity:    0.0013311
Arg of perigee:   050.0137 deg
Mean anomaly:     310.2211 deg
Mean motion:   14.25570228 rev/day
Decay rate:        1.2e-07 rev/day^2
Epoch rev:           92754
Checksum:              274

Satellite: MET-3/5
Catalog number: 21655
Epoch time:      09077.89795195
Element set:    0631
Inclination:      082.5496 deg
RA of node:       270.2881 deg
Eccentricity:    0.0014620
Arg of perigee:   048.6734 deg
Mean anomaly:     311.5644 deg
Mean motion:   13.17018586 rev/day
Decay rate:        5.1e-07 rev/day^2
Epoch rev:           84574
Checksum:              329

Satellite: MET-2/21
Catalog number: 22782
Epoch time:      09077.56961375
Element set:    0408
Inclination:      082.5435 deg
RA of node:       253.8869 deg
Eccentricity:    0.0021081
Arg of perigee:   239.3607 deg
Mean anomaly:     120.5485 deg
Mean motion:   13.83633936 rev/day
Decay rate:        2.4e-07 rev/day^2
Epoch rev:           78507
Checksum:              327

Satellite: OKEAN-4
Catalog number: 23317
Epoch time:      09078.47753210
Element set:     857
Inclination:      082.5368 deg
RA of node:       058.1980 deg
Eccentricity:    0.0020926
Arg of perigee:   303.7271 deg
Mean anomaly:     056.1953 deg
Mean motion:   14.82681669 rev/day
Decay rate:       1.96e-06 rev/day^2
Epoch rev:           77907
Checksum:              334

Satellite: NOAA-14
Catalog number: 23455
Epoch time:      09077.79400439
Element set:    0551
Inclination:      098.9130 deg
RA of node:       155.7729 deg
Eccentricity:    0.0010346
Arg of perigee:   088.3369 deg
Mean anomaly:     271.8987 deg
Mean motion:   14.13757953 rev/day
Decay rate:      -2.87e-06 rev/day^2
Epoch rev:           73315
Checksum:              345

Satellite: NOAA-15
Catalog number: 25338
Epoch time:      09077.81088130
Element set:    0857
Inclination:      098.5808 deg
RA of node:       069.0245 deg
Eccentricity:    0.0010142
Arg of perigee:   326.6373 deg
Mean anomaly:     033.4166 deg
Mean motion:   14.24749001 rev/day
Decay rate:       -8.2e-07 rev/day^2
Epoch rev:           56390
Checksum:              301

Satellite: RESURS
Catalog number: 25394
Epoch time:      09078.65416023
Element set:     168
Inclination:      098.3521 deg
RA of node:       115.5181 deg
Eccentricity:    0.0002206
Arg of perigee:   095.2869 deg
Mean anomaly:     264.8561 deg
Mean motion:   14.24180704 rev/day
Decay rate:       -3.3e-07 rev/day^2
Epoch rev:           55565
Checksum:              294

Satellite: FENGYUN1
Catalog number: 25730
Epoch time:      09077.95907590
Element set:    0748
Inclination:      098.7497 deg
RA of node:       050.8426 deg
Eccentricity:    0.0022868
Arg of perigee:   111.7909 deg
Mean anomaly:     248.5696 deg
Mean motion:   14.07947013 rev/day
Decay rate:       6.03e-06 rev/day^2
Epoch rev:           50762
Checksum:              341

Satellite: OKEAN-0
Catalog number: 25860
Epoch time:      09078.47084335
Element set:     627
Inclination:      097.7793 deg
RA of node:       063.2543 deg
Eccentricity:    0.0001750
Arg of perigee:   084.3896 deg
Mean anomaly:     275.7527 deg
Mean motion:   14.73562796 rev/day
Decay rate:        1.5e-07 rev/day^2
Epoch rev:           51993
Checksum:              339

Satellite: NOAA-16
Catalog number: 26536
Epoch time:      09077.83648341
Element set:    0331
Inclination:      099.1772 deg
RA of node:       079.3205 deg
Eccentricity:    0.0010694
Arg of perigee:   170.7733 deg
Mean anomaly:     189.3626 deg
Mean motion:   14.12513683 rev/day
Decay rate:       2.31e-06 rev/day^2
Epoch rev:           43754
Checksum:              313

Satellite: NOAA-17
Catalog number: 27453
Epoch time:      09077.78445689
Element set:    0340
Inclination:      098.4936 deg
RA of node:       139.9286 deg
Eccentricity:    0.0012068
Arg of perigee:   032.8279 deg
Mean anomaly:     327.3650 deg
Mean motion:   14.24048554 rev/day
Decay rate:        4.4e-07 rev/day^2
Epoch rev:           34988
Checksum:              349

Satellite: NOAA-18
Catalog number: 28654
Epoch time:      09077.79344072
Element set:    0830
Inclination:      098.8996 deg
RA of node:       021.7689 deg
Eccentricity:    0.0013400
Arg of perigee:   258.7238 deg
Mean anomaly:     101.2434 deg
Mean motion:   14.11241592 rev/day
Decay rate:       -6.4e-07 rev/day^2
Epoch rev:           19720
Checksum:              315

Satellite: NOAA-19
Catalog number: 33591
Epoch time:      09077.82500159
Element set:    0040
Inclination:      098.7380 deg
RA of node:       025.9764 deg
Eccentricity:    0.0014669
Arg of perigee:   136.8173 deg
Mean anomaly:     223.4135 deg
Mean motion:   14.10944167 rev/day
Decay rate:       3.28e-06 rev/day^2
Epoch rev:           00569
Checksum:              311

/EX
SB KEPS @ AMSAT  $ORB09078.M
Orbital Elements  09078.MISC

HR AMSAT ORBITAL ELEMENTS FOR MANNED AND MISCELLANEOUS SATELLITES
FROM WA5QGD FORT WORTH,TX March 19, 2009
Send Subscribe/unsubscribe to KEPS at 
http://www.amsat.org/mailman/listinfo/keps
BID: ORB09078.M
TO ALL RADIO AMATEURS BT

